DECAYED
Showing default

TSINGHUA SCIENCE, 46026 (Decayed)

Orbit data source: Space-Track

TSINGHUA SCIENCE, 46026 was a payload satellite owned by Tsinghua (CN) in LEO that was launched on Thu, 06 Aug 2020 UTC via a CHANG ZHENG 2D launch vehicle from the Jiuquan Satellite Launch Center, China (JSC). Payload-class satellites include a variety of spacecraft equipped with specific instruments for various scientific and technological missions. These include communications satellites like Starlink; space stations such as the ISS; scientific satellites like the Hubble; Earth observation satellites from companies like Planet Labs, Umbra, and HawkEye 360; GPS; miniature CubeSats for education and research; and military/defense satellites.

Not visible in the next 10 days
Identifier
46026, 2020-054B
Orbit
Decayed
Last TLE update
1 year ago
Origin
Manufacturer
Tsinghua
Mission
Decayed Amateur Science
Bus & Motor
TSSCI, Unknown motor
Mass
~100 kg wet, ~100 kg dry
Launch date (UTC)
2020-08-06 (5 years ago)
Launch vehicle
CHANG ZHENG 2D
Launch site
Jiuquan Satellite Launch Center, China (JSC)
Object type
Payload
Rocket body
Debris
Shape & HBR
Box, Unknown HBR
Radar Cross Section
0.080 m², Medium (>0.1 m² and < 1m²)

Expand to show TLE details & history

TLE from 1 year ago
0 TSINGHUA SCIENCE
1 46026U 20054B   24163.19113482  .09146016  25032-5  36597-3 0  9991
2 46026  97.3073 261.8657 0015693 263.8822  96.0691 16.42180447215588
Epoch: 2024-06-11T04:35Z
TLE epoch observation values (Epoch: 2024-06-11T04:35:14.048Z)
Latitude
-0.00001°
Longitude
-66.95873°
Altitude
164.367 km
Speed
7.807 km/s
True Right ascension
17h 27m 27s
True Declination
0° 00' 00"
Sunlit
Object was in full shadow at epoch
Visualization orbit readout
Visualization observer readout
Orbital elements
Apogee altitude
167.065 km
Perigee altitude
146.554 km
Semi-major axis
6,534.946 km
Eccentricity
0.00157
Inclination
97.3073°
RAAN
261.8657°
Arg. of periapsis
263.8822°
True anomaly
Unknown
Mean anomaly
96.0691°
Eccentric anomaly
Unknown
Mean motion
4.10847 °/min
Orbital period
87.62 mins
BSTAR
0.00036597
Loading maneuver chart data...
Loading SW <> Apogee altitude chart data...
Loading historical data...
Loading historical data...
Loading historical data...
Loading historical data...
Loading historical data...
Loading historical data...
Loading historical data...
Other satellites on launch #54 in the year 2020 (2020-08-06 UTC)

TSINGHUA SCIENCE Visibility

Observer location: undefined°, undefined°

This satellite is decayed
Span
Click to sort rows by Start time (UTC) header in descending order
Start Az.
Max El. time (UTC)
Max El. Az.
Max El.
End time (UTC)
End Az.
|